Wink, TX

6:52 PM CDT on May 26, 2017 (GMT -0500)
Winkler County

Weather History for KINK - March, 2013

Change the Weather History Date:

Thursday, March 21, 2013

  Actual Average Record
Temperature  
Mean Temperature 68 °F -  
Max Temperature 88 °F 73 °F 93 °F (2017)
Min Temperature 48 °F 39 °F 26 °F (1942)
Cooling Degree Days 3    
Growing Degree Days 18 (Base 50)    
Moisture  
Dew Point 30 °F    
Average Humidity 39    
Maximum Humidity 93    
Minimum Humidity 5    
Precipitation  
Precipitation 0.00 in - - ()
Sea Level Pressure  
Sea Level Pressure 29.61 in    
Wind  
Wind Speed 11 mph (SW)    
Max Wind Speed 30 mph    
Max Gust Speed 37 mph    
Visibility 10 miles    
Events      
Averages and records for this station are not official NWS values.
T = Trace of Precipitation, MM = Missing Value Source: NWS Daily Summary

Daily Weather History Graph

Daily Weather History Graph

Search for Another Location

Airport or City:

Trip Planner

Search our weather history database for the weather conditions in past years. The results will help you decide how hot, cold, wet, or windy it might be!

Date:

Astronomy

Mar. 21, 2013 Rise Set
Actual Time 7:54 AM CDT 8:05 PM CDT
Civil Twilight 7:30 AM CDT 8:29 PM CDT
Nautical Twilight 7:02 AM CDT 8:57 PM CDT
Astronomical Twilight 6:33 AM CDT 9:26 PM CDT
Moon 2:54 PM CDT (3/21) 4:00 AM CDT (3/21)
Length of Visible Light 12h 58m
Length of Day
12h 10m
Waxing Gibbous, 69% of the Moon is Illuminated
Mar 21
Waxing Gibbous
Mar 27
Full
Apr 2
Last Quarter
Apr 10
New
Apr 18
First Quarter

Hourly Weather History & Observations

Time (CDT) Temp. Dew Point Humidity Pressure Visibility Wind Dir Wind Speed Gust Speed Precip Events Conditions
12:53 AM 55.0 °F 39.0 °F 55% 29.83 in 10.0 mi SE 8.1 mph - N/A   Clear
1:53 AM 55.0 °F 39.9 °F 57% 29.80 in 10.0 mi SSE 8.1 mph - N/A   Clear
2:53 AM 53.1 °F 41.0 °F 64% 29.76 in 10.0 mi SSE 10.4 mph - N/A   Clear
3:53 AM 52.0 °F 42.1 °F 69% 29.73 in 10.0 mi SSE 8.1 mph - N/A   Clear
4:53 AM 51.1 °F 44.1 °F 77% 29.70 in 10.0 mi SE 6.9 mph - N/A   Clear
5:53 AM 50.0 °F 44.1 °F 80% 29.69 in 10.0 mi SSE 5.8 mph - N/A   Clear
6:53 AM 48.9 °F 45.0 °F 86% 29.68 in 9.0 mi SE 5.8 mph - N/A   Clear
7:53 AM 48.0 °F 46.0 °F 93% 29.67 in 8.0 mi SSE 5.8 mph - N/A   Clear
8:53 AM 48.0 °F 46.0 °F 93% 29.67 in 5.0 mi South 6.9 mph - N/A   Clear
9:53 AM 54.0 °F 42.1 °F 64% 29.67 in 10.0 mi SSE 5.8 mph - N/A   Clear
10:53 AM 61.0 °F 41.0 °F 48% 29.66 in 10.0 mi Calm Calm - N/A   Clear
11:53 AM 71.1 °F 37.9 °F 30% 29.62 in 10.0 mi WSW 9.2 mph - N/A   Clear
12:53 PM 82.0 °F 27.0 °F 13% 29.57 in 10.0 mi WSW 18.4 mph 23.0 mph N/A   Clear
1:53 PM 84.9 °F 23.0 °F 10% 29.53 in 10.0 mi WNW 15.0 mph 27.6 mph N/A   Clear
2:53 PM 88.0 °F 21.0 °F 9% 29.49 in 10.0 mi West 29.9 mph 36.8 mph N/A   Clear
3:53 PM 87.1 °F 15.1 °F 7% 29.46 in 10.0 mi West 28.8 mph 35.7 mph N/A   Clear
4:53 PM 86.0 °F 7.0 °F 5% 29.45 in 10.0 mi West 23.0 mph 35.7 mph N/A   Clear
5:53 PM 87.1 °F 12.0 °F 6% 29.45 in 10.0 mi WNW 21.9 mph 36.8 mph N/A   Clear
6:53 PM 84.9 °F 16.0 °F 8% 29.46 in 10.0 mi WNW 23.0 mph 35.7 mph N/A   Clear
7:53 PM 80.1 °F 14.0 °F 8% 29.49 in 10.0 mi WNW 16.1 mph - N/A   Clear
8:53 PM 77.0 °F 16.0 °F 10% 29.52 in 10.0 mi West 11.5 mph - N/A   Clear
9:53 PM 70.0 °F 16.0 °F 13% 29.54 in 10.0 mi West 8.1 mph - N/A   Clear
10:53 PM 63.0 °F 16.0 °F 16% 29.56 in 10.0 mi West 9.2 mph - N/A   Clear
11:53 PM 61.0 °F 17.1 °F 18% 29.56 in 10.0 mi WSW 10.4 mph - N/A   Clear